FW8134 Weather Reports


Display with metric or nautical units.
time (UTC)temp
F
wind
direction
speed
MPH
gust
MPH
rain 1hr
in
rain 24hr
in
rain mn
in
humidity
%
barometer
mb
20260901072018 61 0.0 0.0 0.00 0.00 0.00 92 1004.3
20260901071019 60 0.0 0.0 0.00 0.00 0.00 96 1004.4
20260901070015 59 0.0 0.0 0.00 0.00 0.00 97 1004.4
20260901065017 57 0.0 0.0 0.00 0.00 0.00 97 1004.3
20260901064038 56 0.0 0.0 0.00 0.00 0.00 97 1004.3
20260901063019 53 0.0 0.0 0.00 0.00 0.00 97 1004.3
20260901062016 52 0.0 0.0 0.00 0.00 0.00 97 1004.3
20260901061036 52 0.0 0.0 0.00 0.00 0.00 97 1004.2
20260901060018 51 0.0 0.0 0.00 0.00 0.00 97 1004.1
20260901055019 50 0.0 0.0 0.00 0.00 0.00 97 1004.0
20260901054015 50 0.0 0.0 0.00 0.00 0.00 96 1003.8
20260901053157 51 0.0 0.0 0.00 0.00 0.00 97 1003.7
20260901052018 51 0.0 0.0 0.00 0.00 0.00 96 1003.6
20260901051019 51 0.0 0.0 0.00 0.00 0.00 96 1003.6
20260901050015 51 0.0 0.0 0.00 0.00 0.00 96 1003.7
20260901045036 51 0.0 0.0 0.00 0.00 0.00 97 1003.6
20260901044018 51 0.0 0.0 0.00 0.00 0.00 96 1003.5
20260901043019 51 0.0 0.0 0.00 0.00 0.00 96 1003.5
20260901042015 51 0.0 0.0 0.00 0.00 0.00 96 1003.5
20260901041016 51 0.0 0.0 0.00 0.00 0.00 96 1003.4
20260901040018 52 0.0 0.0 0.00 0.00 0.00 96 1003.4
20260901035019 52 0.0 0.0 0.00 0.00 0.00 96 1003.4
20260901034016 52 0.0 0.0 0.00 0.00 0.00 96 1003.4
20260901033016 52 0.0 0.0 0.00 0.00 0.00 96 1003.4
20260901032018 53 0.0 0.0 0.00 0.00 0.00 96 1003.5
20260901031019 53 0.0 0.0 0.00 0.00 0.00 96 1003.5
20260901030015 53 0.0 0.0 0.00 0.00 0.00 96 1003.6
20260901025016 53 0.0 0.0 0.00 0.00 0.00 96 1003.5
20260901024017 54 0.0 0.0 0.00 0.00 0.00 96 1003.5
20260901023019 54 0.0 0.0 0.00 0.00 0.00 96 1003.6
20260901022015 54 0.0 0.0 0.00 0.00 0.00 96 1003.6
20260901021036 55 0.0 0.0 0.00 0.00 0.00 96 1003.6
20260901020018 55 0.0 0.0 0.00 0.00 0.00 96 1003.6
20260901015059 55 0.0 0.0 0.00 0.00 0.00 97 1003.6
20260901014015 54 0.0 0.0 0.00 0.00 0.00 96 1003.6
20260901013016 54 0.0 0.0 0.00 0.00 0.00 96 1003.4
20260901012038 54 0.0 0.0 0.00 0.00 0.00 96 1003.4
20260901011019 54 0.0 0.0 0.00 0.00 0.00 96 1003.6
20260901010015 54 0.0 0.0 0.00 0.00 0.00 96 1003.5
20260901005017 54 0.0 0.0 0.00 0.00 0.00 95 1003.3
20260901004018 54 0.0 0.0 0.00 0.00 0.00 95 1003.3
20260901003019 54 0.0 0.0 0.00 0.00 0.00 95 1003.3
20260901002016 53 0.0 0.0 0.00 0.00 0.00 95 1003.3
20260901001016 54 0.0 0.0 0.00 0.00 0.00 95 1003.2
20260901000018 54 0.0 0.0 0.00 0.00 0.00 95 1003.3
20260831235019 54 0.0 0.0 0.00 0.00 0.00 95 1003.2
20260831234015 54 0.0 0.0 0.00 0.00 0.00 95 1003.2
20260831233017 54 0.0 0.0 0.00 0.00 0.00 94 1003.2
20260831232018 54 0.0 0.0 0.00 0.00 0.00 94 1003.1
20260831231039 54 0.0 0.0 0.00 0.00 0.00 94 1003.0
20260831230015 54 0.0 0.0 0.00 0.00 0.00 94 1003.0
20260831225017 54 0.0 0.0 0.00 0.00 0.00 93 1002.9
20260831224018 55 0.0 0.0 0.00 0.00 0.00 93 1003.0
20260831223019 55 0.0 0.0 0.00 0.00 0.00 93 1003.1
20260831222015 55 0.0 0.0 0.00 0.00 0.00 93 1003.1
20260831221016 55 0.0 0.0 0.00 0.00 0.00 93 1003.0
20260831220017 55 0.0 0.0 0.00 0.00 0.00 92 1003.0
20260831215019 55 0.0 0.0 0.00 0.00 0.00 92 1003.0
20260831214015 56 0.0 0.0 0.00 0.00 0.00 92 1002.9
20260831213016 56 0.0 0.0 0.00 0.00 0.00 92 1002.8
20260831212018 56 0.0 0.0 0.00 0.00 0.00 91 1002.8
20260831211019 56 0.0 0.0 0.00 0.00 0.00 91 1002.8
20260831210020 57 0.0 0.0 0.00 0.00 0.00 90 1002.8
20260831205016 57 0.0 0.0 0.00 0.00 0.00 90 1002.7
20260831204017 57 0.0 0.0 0.00 0.00 0.00 89 1002.6
20260831203018 58 0.0 0.0 0.00 0.00 0.00 89 1002.5
20260831202020 58 0.0 0.0 0.00 0.00 0.00 88 1002.5
20260831201056 58 0.0 0.0 0.00 0.00 0.00 87 1002.4
20260831200018 59 0.0 0.0 0.00 0.00 0.00 87 1002.3
20260831195019 59 0.0 0.0 0.00 0.00 0.00 86 1002.2
20260831194020 59 0.0 0.0 0.00 0.00 0.00 85 1002.1
20260831193016 60 0.0 0.0 0.00 0.00 0.00 84 1002.1
20260831192017 61 0.0 0.0 0.00 0.00 0.00 83 1002.0
20260831191039 62 0.0 0.0 0.00 0.00 0.00 81 1001.8
20260831190040 63 0.0 0.0 0.00 0.00 0.00 80 1001.7
20260831185016 64 0.0 0.0 0.00 0.00 0.00 77 1001.5
20260831184037 65 0.0 0.0 0.00 0.00 0.00 74 1001.4
20260831183018 67 0.0 0.0 0.00 0.00 0.00 72 1001.3
20260831182040 67 0.0 0.0 0.00 0.00 0.00 67 1001.1
20260831181016 68 311 0.0 1.0 0.00 0.00 0.00 66 1001.0
20260831180037 69 210 0.0 4.0 0.00 0.00 0.00 64 1001.0
20260831175018 70 258 0.0 3.0 0.00 0.00 0.00 63 1000.8
20260831174019 70 264 1.0 4.0 0.00 0.00 0.00 62 1000.8
20260831173016 71 226 1.0 5.0 0.00 0.00 0.00 63 1000.7
20260831172017 71 223 1.0 4.0 0.00 0.00 0.00 62 1000.6
20260831171018 71 259 2.0 6.0 0.00 0.00 0.00 64 1000.5
20260831170019 71 241 1.0 10.0 0.00 0.00 0.00 67 1000.4
20260831165015 71 233 0.0 5.0 0.00 0.00 0.00 67 1000.4
20260831164016 71 246 1.0 7.0 0.00 0.00 0.00 67 1000.4
20260831163018 72 271 2.0 5.0 0.00 0.00 0.00 66 1000.3
20260831162019 71 244 2.0 7.0 0.00 0.00 0.00 65 1000.3
20260831161015 72 213 2.0 9.0 0.00 0.00 0.00 64 1000.3
20260831160016 72 224 3.0 12.0 0.00 0.00 0.00 63 1000.2
20260831155017 72 218 3.0 11.0 0.00 0.00 0.00 65 1000.2
20260831154019 70 233 3.0 8.0 0.00 0.00 0.00 68 1000.3
20260831153015 70 242 4.0 13.0 0.00 0.00 0.00 68 1000.3
20260831152016 70 255 2.0 7.0 0.00 0.00 0.00 73 1000.2
20260831151017 71 91 2.0 7.0 0.00 0.00 0.00 72 1000.1
20260831150019 71 253 1.0 4.0 0.00 0.00 0.00 72 1000.0
20260831145020 70 223 4.0 9.0 0.00 0.00 0.00 73 1000.0
20260831144020 68 208 2.0 5.0 0.00 0.00 0.00 77 1000.0
20260831143017 68 256 3.0 7.0 0.00 0.00 0.00 77 1000.1
20260831142038 71 303 4.0 15.0 0.00 0.00 0.00 71 999.9
20260831141039 72 236 2.0 8.0 0.00 0.00 0.00 68 999.6
20260831140020 72 336 3.0 7.0 0.00 0.00 0.00 68 999.4
20260831135016 72 215 2.0 6.0 0.00 0.00 0.00 69 999.4
20260831134018 71 260 2.0 5.0 0.00 0.00 0.00 70 999.3
20260831133019 70 286 2.0 5.0 0.00 0.00 0.00 71 999.4
20260831132020 69 248 2.0 5.0 0.00 0.00 0.00 74 999.4
20260831131016 69 234 2.0 9.0 0.00 0.00 0.00 72 999.5
20260831130017 72 292 3.0 13.0 0.00 0.00 0.00 65 999.3
20260831125019 73 224 4.0 13.0 0.00 0.00 0.00 63 998.9
20260831124040 73 248 5.0 14.0 0.00 0.00 0.00 63 998.8
20260831123016 73 222 4.0 15.0 0.00 0.00 0.00 64 998.7
20260831122017 72 212 5.0 15.0 0.00 0.00 0.00 65 998.7
20260831121018 72 239 5.0 10.0 0.00 0.00 0.00 64 998.7
20260831120020 72 214 5.0 12.0 0.00 0.00 0.00 65 998.7
20260831115016 70 237 5.0 11.0 0.00 0.00 0.00 67 998.8
20260831114017 71 222 4.0 14.0 0.00 0.00 0.00 66 998.6
20260831113018 70 216 3.0 13.0 0.00 0.00 0.00 68 998.7
20260831112019 70 229 3.0 8.0 0.00 0.00 0.00 69 998.6
20260831111020 70 239 4.0 11.0 0.00 0.00 0.00 68 998.5
20260831110017 69 241 4.0 12.0 0.00 0.00 0.00 70 998.3
20260831105018 69 218 5.0 13.0 0.00 0.00 0.00 70 998.3
20260831104039 69 250 3.0 11.0 0.00 0.00 0.00 70 998.2
20260831103020 70 231 5.0 14.0 0.00 0.00 0.00 67 998.2
20260831102037 71 212 5.0 15.0 0.00 0.00 0.00 68 998.1
20260831101017 70 222 4.0 14.0 0.00 0.00 0.00 68 998.0
20260831100039 70 232 5.0 15.0 0.00 0.00 0.00 69 998.0
20260831095020 69 229 4.0 15.0 0.00 0.00 0.00 70 997.9
20260831094016 68 222 5.0 16.0 0.00 0.01 0.00 73 997.9
20260831093037 68 236 4.0 11.0 0.00 0.01 0.00 72 997.8
20260831092018 68 225 5.0 12.0 0.00 0.01 0.00 73 997.8
20260831091020 68 229 5.0 14.0 0.00 0.01 0.00 74 997.6
20260831090015 68 218 5.0 12.0 0.00 0.01 0.00 76 997.6
20260831085016 67 217 7.0 14.0 0.00 0.01 0.00 78 997.4
20260831084018 66 213 5.0 10.0 0.00 0.01 0.00 81 997.4
20260831083018 66 213 5.0 12.0 0.00 0.01 0.00 79 997.4
20260831082020 66 215 5.0 14.0 0.00 0.01 0.00 80 997.2
20260831081015 66 206 4.0 13.0 0.00 0.01 0.00 82 997.2
20260831080016 64 214 5.0 10.0 0.00 0.01 0.00 84 997.0
20260831075017 63 211 4.0 14.0 0.00 0.01 0.00 86 997.0
20260831074039 63 207 2.0 7.0 0.00 0.01 0.00 88 996.9
20260831073019 63 209 2.0 8.0 0.00 0.01 0.00 88 996.9